QPF
0.02 0.03 0.02 0.02 0.03 0.03 0.03 0.02 0.01 0.01 0.01 0.01 0.01 0.01 0.02 0.02 0.01 0.02 0.01 0.01 0.01 0.01 0.01 0.02 0.02 0.02 0.01 0.01 0.01 0.01 0.02 0.02 0.02 0.02 0.02 0.01 0.01 0.01 0.01 0.03 0.04 0.02 0.02
0.02 0.04 0.03 0.02 0.03 0.03 0.02 0.01 0.01 0.01 0.01 0.01 0.02 0.01 0.02 0.02 0.02 0.02 0.02 0.02 0.02 0.02 0.02 0.02 0.01 0.01 0.02 0.02 0.02 0.01 0.01 0.02 0.02 0.02 0.02 0.02 0.02 0.01 0.01 0.01 0.02 0.02 0.02
0.02 0.03 0.03 0.03 0.03 0.03 0.02 0.01 0.01 0.01 0.01 0.01 0.02 0.02 0.02 0.02 0.02 0.02 0.02 0.04 0.04 0.03 0.02 0.02 0.02 0.02 0.01 0.02 0.03 0.03 0.03 0.02 0.02 0.02 0.02 0.02 0.01 0.02 0.02 0.01 0.01 0.02 0.02
0.03 0.03 0.03 0.03 0.04 0.03 0.02 0.01 0.01 0.01 0.01 0.01 0.01 0.02 0.02 0.02 0.02 0.02 0.02 0.03 0.04 0.03 0.02 0.01 0.02 0.02 0.03 0.03 0.02 0.02 0.03 0.04 0.04 0.04 0.04 0.04 0.03 0.02 0.03 0.02 0.02 0.02 0.02
0.03 0.04 0.04 0.04 0.04 0.03 0.02 0.01 0.01 0.01 0.01 0.01 0.01 0.01 0.02 0.02 0.02 0.01 0.02 0.02 0.03 0.03 0.02 0.02 0.02 0.02 0.02 0.03 0.03 0.02 0.02 0.03 0.05 0.06 0.06 0.06 0.05 0.03 0.03 0.04 0.04 0.02 0.02
0.04 0.04 0.04 0.04 0.04 0.02 0.01 0.01 0.01 0.01 0.01 0.01 0.01 0.01 0.01 0.01 0.02 0.02 0.01 0.01 0.02 0.03 0.03 0.02 0.01 0.01 0.02 0.03 0.03 0.02 0.02 0.03 0.04 0.05 0.06 0.07 0.07 0.05 0.05 0.06 0.06 0.04 0.03
0.05 0.05 0.05 0.04 0.04 0.02 0.01 0.01 0.01 0.00 0.00 0.01 0.01 0.01 0.01 0.01 0.01 0.02 0.02 0.01 0.02 0.02 0.02 0.02 0.01 0.01 0.01 0.01 0.01 0.02 0.02 0.02 0.03 0.04 0.05 0.05 0.06 0.05 0.05 0.06 0.07 0.07 0.05
0.04 0.06 0.06 0.04 0.03 0.02 0.02 0.01 0.01 0.00 0.00 0.01 0.01 0.02 0.01 0.01 0.01 0.01 0.02 0.03 0.02 0.01 0.02 0.02 0.02 0.01 0.01 0.01 0.01 0.01 0.02 0.02 0.02 0.02 0.04 0.04 0.05 0.06 0.06 0.06 0.05 0.05 0.05
0.02 0.05 0.06 0.04 0.03 0.02 0.02 0.02 0.01 0.00 0.00 0.01 0.01 0.02 0.02 0.02 0.01 0.02 0.03 0.03 0.03 0.02 0.02 0.03 0.02 0.02 0.01 0.01 0.01 0.01 0.01 0.02 0.02 0.03 0.03 0.04 0.05 0.06 0.06 0.06 0.05 0.04 0.03
0.01 0.02 0.04 0.03 0.02 0.02 0.02 0.03 0.03 0.02 0.01 0.01 0.01 0.01 0.01 0.02 0.02 0.03 0.03 0.03 0.03 0.04 0.02 0.03 0.04 0.02 0.02 0.02 0.02 0.02 0.02 0.02 0.02 0.03 0.03 0.04 0.04 0.04 0.04 0.03 0.03 0.04 0.04
0.02 0.02 0.02 0.02 0.01 0.01 0.01 0.02 0.04 0.04 0.04 0.04 0.02 0.01 0.01 0.01 0.02 0.03 0.04 0.03 0.02 0.03 0.03 0.02 0.03 0.03 0.02 0.02 0.03 0.03 0.02 0.03 0.03 0.03 0.03 0.04 0.04 0.04 0.04 0.03 0.02 0.03 0.03
0.02 0.03 0.03 0.02 0.01 0.01 0.01 0.01 0.03 0.04 0.06 0.07 0.07 0.05 0.03 0.02 0.02 0.03 0.03 0.03 0.02 0.02 0.03 0.03 0.03 0.03 0.02 0.02 0.02 0.02 0.03 0.04 0.04 0.04 0.04 0.04 0.04 0.04 0.04 0.04 0.03 0.03 0.04
0.02 0.04 0.03 0.03 0.01 0.01 0.01 0.01 0.02 0.03 0.04 0.06 0.07 0.07 0.06 0.04 0.03 0.03 0.03 0.03 0.03 0.02 0.02 0.04 0.04 0.04 0.03 0.02 0.02 0.02 0.03 0.04 0.05 0.05 0.05 0.05 0.04 0.03 0.03 0.04 0.04 0.03 0.03
0.02 0.04 0.04 0.03 0.02 0.01 0.01 0.01 0.01 0.02 0.03 0.04 0.05 0.06 0.05 0.05 0.04 0.04 0.02 0.02 0.02 0.02 0.03 0.04 0.03 0.03 0.04 0.03 0.03 0.03 0.04 0.05 0.06 0.06 0.05 0.05 0.06 0.06 0.05 0.05 0.04 0.03 0.04
0.03 0.03 0.05 0.04 0.03 0.02 0.01 0.01 0.01 0.01 0.02 0.03 0.03 0.03 0.04 0.04 0.04 0.03 0.02 0.01 0.01 0.02 0.03 0.03 0.03 0.04 0.05 0.07 0.07 0.06 0.05 0.06 0.07 0.07 0.06 0.06 0.06 0.07 0.08 0.06 0.06 0.04 0.04
0.02 0.04 0.04 0.05 0.04 0.04 0.03 0.02 0.01 0.02 0.02 0.02 0.02 0.03 0.03 0.04 0.04 0.03 0.02 0.02 0.02 0.02 0.02 0.03 0.03 0.03 0.04 0.06 0.08 0.09 0.08 0.08 0.08 0.08 0.09 0.07 0.06 0.07 0.07 0.06 0.06 0.05 0.04
0.02 0.03 0.04 0.04 0.04 0.03 0.03 0.02 0.01 0.02 0.02 0.02 0.02 0.02 0.02 0.03 0.03 0.03 0.02 0.02 0.01 0.01 0.02 0.02 0.02 0.02 0.03 0.03 0.04 0.06 0.07 0.07 0.08 0.08 0.08 0.07 0.06 0.06 0.06 0.05 0.05 0.05 0.04
0.01 0.02 0.03 0.04 0.04 0.03 0.03 0.02 0.02 0.01 0.02 0.02 0.02 0.02 0.02 0.02 0.03 0.02 0.02 0.02 0.01 0.02 0.02 0.02 0.02 0.01 0.02 0.02 0.03 0.05 0.05 0.06 0.07 0.08 0.08 0.07 0.06 0.06 0.05 0.04 0.03 0.04 0.05
0.02 0.02 0.03 0.04 0.04 0.04 0.05 0.04 0.03 0.02 0.02 0.02 0.02 0.02 0.03 0.03 0.02 0.01 0.01 0.01 0.01 0.02 0.03 0.02 0.02 0.02 0.02 0.03 0.03 0.04 0.04 0.05 0.05 0.06 0.06 0.07 0.08 0.06 0.05 0.04 0.03 0.03 0.03
0.02 0.03 0.03 0.04 0.04 0.05 0.07 0.06 0.04 0.03 0.02 0.02 0.02 0.02 0.02 0.02 0.02 0.01 0.01 0.02 0.02 0.03 0.03 0.04 0.04 0.04 0.04 0.04 0.04 0.04 0.04 0.04 0.05 0.05 0.05 0.06 0.07 0.07 0.05 0.04 0.04 0.04 0.03
0.02 0.03 0.03 0.04 0.05 0.06 0.07 0.06 0.05 0.04 0.03 0.02 0.02 0.02 0.02 0.02 0.02 0.02 0.02 0.03 0.03 0.04 0.05 0.05 0.05 0.05 0.05 0.05 0.04 0.04 0.05 0.05 0.05 0.05 0.05 0.05 0.06 0.06 0.05 0.05 0.04 0.04 0.04
0.02 0.02 0.03 0.04 0.06 0.07 0.07 0.06 0.07 0.06 0.05 0.04 0.03 0.03 0.03 0.02 0.03 0.04 0.05 0.05 0.05 0.05 0.06 0.07 0.07 0.07 0.07 0.06 0.05 0.05 0.05 0.05 0.05 0.05 0.05 0.05 0.05 0.06 0.05 0.05 0.04 0.04 0.04
0.02 0.02 0.03 0.04 0.05 0.07 0.07 0.07 0.07 0.07 0.05 0.03 0.02 0.02 0.03 0.03 0.04 0.05 0.06 0.07 0.06 0.06 0.07 0.08 0.08 0.08 0.08 0.07 0.05 0.05 0.05 0.05 0.05 0.06 0.06 0.06 0.06 0.05 0.05 0.05 0.04 0.04 0.04
0.02 0.02 0.03 0.04 0.05 0.05 0.06 0.06 0.06 0.06 0.04 0.04 0.03 0.03 0.03 0.03 0.04 0.05 0.05 0.06 0.07 0.07 0.07 0.09 0.09 0.09 0.09 0.08 0.07 0.06 0.05 0.05 0.05 0.06 0.07 0.07 0.06 0.05 0.04 0.04 0.04 0.03 0.03
0.02 0.02 0.03 0.03 0.03 0.03 0.04 0.04 0.04 0.04 0.03 0.03 0.03 0.03 0.03 0.03 0.04 0.04 0.05 0.06 0.07 0.08 0.08 0.08 0.09 0.10 0.10 0.09 0.08 0.07 0.06 0.05 0.05 0.05 0.05 0.05 0.05 0.05 0.04 0.03 0.03 0.03 0.03
0.03 0.03 0.03 0.03 0.03 0.02 0.02 0.02 0.02 0.02 0.02 0.02 0.02 0.02 0.03 0.03 0.04 0.04 0.04 0.05 0.06 0.08 0.09 0.08 0.08 0.08 0.09 0.08 0.08 0.08 0.06 0.05 0.04 0.04 0.04 0.04 0.04 0.04 0.04 0.04 0.03 0.04 0.03
MSLP
1011.48 1012.15 1012.86 1013.57 1014.23 1014.82 1015.30 1015.70 1016.03 1016.30 1016.55 1016.80 1017.05 1017.29 1017.50 1017.67 1017.79 1017.84 1017.84 1017.80 1017.76 1017.74 1017.78 1017.86 1017.99 1018.14 1018.28 1018.36 1018.34 1018.22 1017.98 1017.63 1017.20 1016.72 1016.22 1015.74 1015.28 1014.84 1014.41 1013.99 1013.55 1013.08 1012.59
1011.12 1011.83 1012.56 1013.28 1013.96 1014.57 1015.09 1015.54 1015.93 1016.28 1016.60 1016.92 1017.23 1017.52 1017.77 1017.96 1018.08 1018.11 1018.09 1018.02 1017.93 1017.88 1017.87 1017.92 1018.03 1018.17 1018.32 1018.41 1018.44 1018.36 1018.17 1017.87 1017.49 1017.04 1016.57 1016.08 1015.60 1015.14 1014.66 1014.18 1013.67 1013.13 1012.57
1010.75 1011.50 1012.28 1013.03 1013.74 1014.38 1014.94 1015.43 1015.88 1016.29 1016.69 1017.08 1017.45 1017.79 1018.07 1018.28 1018.40 1018.43 1018.38 1018.28 1018.16 1018.07 1018.02 1018.03 1018.10 1018.22 1018.35 1018.45 1018.49 1018.44 1018.28 1018.03 1017.69 1017.29 1016.84 1016.39 1015.92 1015.45 1014.96 1014.45 1013.90 1013.31 1012.67
1010.41 1011.23 1012.05 1012.84 1013.59 1014.26 1014.86 1015.40 1015.90 1016.36 1016.82 1017.26 1017.68 1018.07 1018.39 1018.62 1018.75 1018.78 1018.72 1018.60 1018.45 1018.32 1018.23 1018.20 1018.23 1018.32 1018.42 1018.50 1018.53 1018.49 1018.35 1018.13 1017.82 1017.46 1017.05 1016.62 1016.18 1015.73 1015.26 1014.75 1014.19 1013.57 1012.90
1010.15 1011.02 1011.90 1012.74 1013.52 1014.23 1014.87 1015.44 1015.98 1016.48 1016.98 1017.46 1017.92 1018.34 1018.68 1018.93 1019.08 1019.11 1019.06 1018.93 1018.77 1018.62 1018.51 1018.45 1018.45 1018.49 1018.55 1018.61 1018.61 1018.56 1018.42 1018.20 1017.91 1017.56 1017.19 1016.79 1016.39 1015.98 1015.53 1015.05 1014.51 1013.89 1013.21
1009.98 1010.91 1011.83 1012.72 1013.54 1014.28 1014.94 1015.54 1016.10 1016.63 1017.15 1017.65 1018.12 1018.55 1018.91 1019.18 1019.34 1019.40 1019.36 1019.24 1019.10 1018.95 1018.83 1018.75 1018.72 1018.73 1018.76 1018.78 1018.75 1018.66 1018.49 1018.26 1017.97 1017.63 1017.27 1016.91 1016.54 1016.16 1015.77 1015.33 1014.82 1014.23 1013.56
1009.90 1010.87 1011.84 1012.76 1013.61 1014.38 1015.06 1015.67 1016.23 1016.77 1017.29 1017.79 1018.27 1018.70 1019.07 1019.34 1019.53 1019.61 1019.59 1019.51 1019.39 1019.26 1019.15 1019.08 1019.04 1019.03 1019.02 1019.00 1018.93 1018.80 1018.60 1018.33 1018.02 1017.68 1017.33 1016.98 1016.64 1016.30 1015.95 1015.56 1015.10 1014.56 1013.92
1009.92 1010.91 1011.91 1012.85 1013.72 1014.49 1015.18 1015.80 1016.36 1016.88 1017.39 1017.88 1018.34 1018.77 1019.14 1019.42 1019.62 1019.73 1019.75 1019.71 1019.63 1019.53 1019.45 1019.39 1019.35 1019.33 1019.30 1019.24 1019.13 1018.96 1018.72 1018.42 1018.09 1017.72 1017.36 1017.02 1016.70 1016.40 1016.09 1015.74 1015.34 1014.85 1014.27
1010.03 1011.02 1012.02 1012.97 1013.84 1014.62 1015.30 1015.91 1016.46 1016.97 1017.46 1017.92 1018.37 1018.79 1019.15 1019.45 1019.66 1019.79 1019.85 1019.85 1019.81 1019.76 1019.70 1019.66 1019.64 1019.61 1019.56 1019.48 1019.34 1019.14 1018.86 1018.53 1018.17 1017.79 1017.42 1017.07 1016.76 1016.47 1016.19 1015.89 1015.54 1015.11 1014.58
1010.22 1011.19 1012.18 1013.12 1013.98 1014.75 1015.42 1016.02 1016.55 1017.04 1017.51 1017.96 1018.39 1018.79 1019.15 1019.45 1019.67 1019.83 1019.91 1019.95 1019.94 1019.92 1019.90 1019.88 1019.86 1019.83 1019.78 1019.68 1019.53 1019.30 1019.01 1018.66 1018.28 1017.88 1017.50 1017.15 1016.84 1016.55 1016.29 1016.03 1015.72 1015.34 1014.88
1010.48 1011.43 1012.39 1013.31 1014.15 1014.90 1015.56 1016.14 1016.66 1017.14 1017.59 1018.03 1018.44 1018.83 1019.18 1019.47 1019.71 1019.87 1019.98 1020.03 1020.05 1020.05 1020.04 1020.03 1020.02 1020.00 1019.95 1019.84 1019.68 1019.46 1019.16 1018.81 1018.42 1018.02 1017.63 1017.27 1016.96 1016.68 1016.42 1016.18 1015.90 1015.58 1015.17
1010.84 1011.76 1012.68 1013.56 1014.38 1015.10 1015.74 1016.31 1016.82 1017.28 1017.72 1018.15 1018.55 1018.92 1019.27 1019.55 1019.79 1019.96 1020.07 1020.13 1020.15 1020.16 1020.15 1020.14 1020.13 1020.10 1020.06 1019.96 1019.81 1019.60 1019.32 1018.98 1018.60 1018.21 1017.83 1017.47 1017.15 1016.86 1016.61 1016.37 1016.12 1015.84 1015.49
1011.30 1012.17 1013.05 1013.90 1014.68 1015.38 1016.00 1016.54 1017.04 1017.49 1017.92 1018.33 1018.72 1019.09 1019.42 1019.70 1019.92 1020.09 1020.19 1020.24 1020.26 1020.25 1020.24 1020.22 1020.20 1020.17 1020.13 1020.05 1019.92 1019.73 1019.48 1019.18 1018.83 1018.46 1018.09 1017.73 1017.41 1017.12 1016.87 1016.64 1016.41 1016.16 1015.86
1011.84 1012.67 1013.52 1014.32 1015.06 1015.73 1016.32 1016.85 1017.32 1017.76 1018.18 1018.58 1018.96 1019.31 1019.62 1019.89 1020.10 1020.25 1020.34 1020.38 1020.37 1020.35 1020.32 1020.28 1020.26 1020.23 1020.19 1020.13 1020.03 1019.87 1019.67 1019.41 1019.10 1018.76 1018.41 1018.08 1017.76 1017.47 1017.21 1016.98 1016.77 1016.55 1016.32
1012.45 1013.25 1014.04 1014.81 1015.51 1016.14 1016.70 1017.20 1017.65 1018.07 1018.47 1018.85 1019.21 1019.54 1019.84 1020.10 1020.29 1020.42 1020.49 1020.51 1020.49 1020.45 1020.40 1020.35 1020.31 1020.28 1020.26 1020.21 1020.14 1020.03 1019.87 1019.66 1019.40 1019.10 1018.79 1018.47 1018.16 1017.88 1017.62 1017.40 1017.20 1017.02 1016.84
1013.09 1013.85 1014.61 1015.33 1015.98 1016.58 1017.10 1017.57 1017.99 1018.38 1018.75 1019.11 1019.45 1019.76 1020.04 1020.27 1020.45 1020.56 1020.61 1020.62 1020.58 1020.53 1020.47 1020.41 1020.37 1020.34 1020.33 1020.31 1020.27 1020.20 1020.09 1019.93 1019.72 1019.46 1019.18 1018.88 1018.59 1018.32 1018.08 1017.87 1017.69 1017.55 1017.42
1013.72 1014.45 1015.16 1015.83 1016.44 1016.99 1017.47 1017.90 1018.29 1018.65 1018.99 1019.32 1019.63 1019.91 1020.17 1020.38 1020.54 1020.64 1020.69 1020.69 1020.65 1020.59 1020.53 1020.47 1020.43 1020.41 1020.41 1020.42 1020.41 1020.38 1020.30 1020.18 1020.02 1019.80 1019.55 1019.28 1019.02 1018.76 1018.53 1018.35 1018.20 1018.10 1018.03
1014.29 1014.97 1015.64 1016.26 1016.83 1017.34 1017.78 1018.18 1018.53 1018.86 1019.17 1019.46 1019.74 1019.99 1020.22 1020.41 1020.56 1020.66 1020.70 1020.70 1020.66 1020.61 1020.56 1020.51 1020.48 1020.48 1020.49 1020.52 1020.53 1020.53 1020.49 1020.41 1020.28 1020.10 1019.88 1019.64 1019.40 1019.16 1018.96 1018.80 1018.69 1018.63 1018.61
1014.77 1015.40 1016.02 1016.59 1017.12 1017.59 1018.01 1018.37 1018.70 1018.99 1019.27 1019.53 1019.77 1020.00 1020.20 1020.37 1020.51 1020.59 1020.64 1020.65 1020.63 1020.59 1020.55 1020.52 1020.51 1020.53 1020.55 1020.59 1020.63 1020.65 1020.64 1020.58 1020.48 1020.33 1020.14 1019.93 1019.71 1019.51 1019.33 1019.20 1019.12 1019.10 1019.13
1015.12 1015.70 1016.27 1016.80 1017.30 1017.74 1018.13 1018.47 1018.77 1019.04 1019.29 1019.52 1019.73 1019.93 1020.11 1020.26 1020.39 1020.47 1020.52 1020.54 1020.53 1020.52 1020.50 1020.49 1020.50 1020.53 1020.57 1020.62 1020.67 1020.71 1020.72 1020.68 1020.60 1020.48 1020.32 1020.13 1019.94 1019.77 1019.62 1019.52 1019.47 1019.48 1019.55
1015.36 1015.88 1016.40 1016.89 1017.36 1017.78 1018.15 1018.48 1018.76 1019.02 1019.24 1019.45 1019.64 1019.81 1019.97 1020.10 1020.21 1020.29 1020.34 1020.37 1020.38 1020.38 1020.39 1020.40 1020.42 1020.47 1020.53 1020.59 1020.66 1020.70 1020.72 1020.71 1020.65 1020.55 1020.41 1020.26 1020.09 1019.95 1019.83 1019.76 1019.73 1019.77 1019.86
1015.49 1015.95 1016.42 1016.88 1017.32 1017.72 1018.08 1018.40 1018.67 1018.91 1019.13 1019.32 1019.48 1019.63 1019.77 1019.88 1019.98 1020.05 1020.10 1020.14 1020.16 1020.18 1020.20 1020.23 1020.27 1020.33 1020.41 1020.48 1020.56 1020.62 1020.66 1020.66 1020.62 1020.55 1020.45 1020.32 1020.18 1020.06 1019.97 1019.91 1019.91 1019.97 1020.08
1015.55 1015.95 1016.36 1016.78 1017.19 1017.58 1017.93 1018.24 1018.51 1018.74 1018.95 1019.12 1019.27 1019.40 1019.51 1019.61 1019.69 1019.76 1019.80 1019.84 1019.87 1019.90 1019.94 1019.98 1020.04 1020.12 1020.21 1020.30 1020.40 1020.48 1020.54 1020.56 1020.55 1020.51 1020.42 1020.33 1020.22 1020.12 1020.05 1020.02 1020.03 1020.09 1020.21
1015.59 1015.91 1016.27 1016.65 1017.02 1017.38 1017.72 1018.02 1018.28 1018.50 1018.69 1018.85 1018.99 1019.10 1019.20 1019.28 1019.34 1019.40 1019.44 1019.48 1019.52 1019.55 1019.60 1019.66 1019.74 1019.84 1019.94 1020.06 1020.17 1020.28 1020.36 1020.42 1020.44 1020.42 1020.38 1020.31 1020.23 1020.16 1020.10 1020.08 1020.10 1020.17 1020.28
1015.62 1015.88 1016.17 1016.49 1016.83 1017.15 1017.46 1017.74 1017.98 1018.19 1018.37 1018.52 1018.64 1018.74 1018.82 1018.89 1018.94 1018.99 1019.03 1019.06 1019.10 1019.15 1019.20 1019.28 1019.38 1019.49 1019.62 1019.76 1019.91 1020.04 1020.16 1020.25 1020.30 1020.33 1020.32 1020.28 1020.23 1020.18 1020.14 1020.13 1020.15 1020.22 1020.33
1015.68 1015.87 1016.10 1016.36 1016.64 1016.92 1017.18 1017.43 1017.65 1017.84 1018.00 1018.13 1018.24 1018.32 1018.39 1018.45 1018.49 1018.53 1018.57 1018.60 1018.65 1018.70 1018.77 1018.85 1018.97 1019.10 1019.26 1019.42 1019.60 1019.77 1019.92 1020.05 1020.15 1020.22 1020.24 1020.24 1020.22 1020.19 1020.17 1020.16 1020.19 1020.26 1020.37
Thickness
5681 5680 5678 5677 5676 5676 5675 5674 5673 5672 5671 5670 5669 5669 5667 5665 5663 5661 5658 5656 5654 5653 5652 5650 5649 5648 5647 5646 5645 5644 5643 5641 5638 5642 5645 5646 5646 5645 5644 5643 5644 5644 5643
5675 5674 5672 5671 5670 5669 5668 5667 5666 5665 5664 5663 5662 5661 5659 5658 5656 5653 5651 5649 5647 5645 5644 5643 5642 5642 5640 5639 5637 5637 5636 5637 5635 5634 5637 5638 5639 5640 5639 5638 5638 5639 5638
5668 5666 5664 5663 5663 5662 5661 5660 5660 5658 5657 5656 5655 5653 5652 5650 5649 5646 5643 5642 5641 5639 5638 5637 5635 5634 5632 5631 5630 5629 5629 5631 5630 5628 5629 5631 5632 5633 5632 5632 5633 5633 5633
5659 5658 5656 5655 5655 5654 5653 5652 5651 5651 5649 5648 5647 5645 5644 5642 5641 5639 5636 5634 5633 5632 5632 5631 5629 5627 5625 5623 5623 5622 5622 5621 5621 5621 5621 5622 5623 5625 5625 5623 5623 5625 5626
5650 5649 5648 5648 5648 5647 5645 5644 5643 5642 5641 5640 5639 5637 5636 5634 5633 5630 5628 5626 5625 5624 5623 5623 5622 5621 5620 5618 5617 5615 5614 5613 5612 5612 5612 5612 5613 5614 5615 5616 5616 5617 5618
5643 5641 5640 5640 5639 5639 5637 5636 5634 5633 5632 5631 5630 5628 5627 5626 5624 5622 5620 5618 5616 5615 5614 5614 5615 5614 5613 5612 5611 5610 5609 5607 5605 5603 5603 5604 5606 5608 5609 5609 5607 5607 5608
5635 5633 5632 5631 5630 5629 5629 5627 5625 5624 5623 5622 5621 5619 5617 5616 5615 5613 5611 5609 5607 5606 5606 5605 5607 5607 5606 5604 5603 5603 5602 5602 5601 5598 5597 5598 5599 5601 5602 5601 5601 5601 5602
5627 5625 5624 5623 5621 5620 5619 5617 5616 5615 5613 5612 5612 5610 5608 5607 5606 5604 5602 5600 5599 5599 5598 5598 5597 5598 5598 5597 5595 5594 5593 5593 5594 5593 5593 5594 5595 5596 5596 5596 5596 5596 5597
5617 5616 5615 5613 5612 5610 5609 5608 5607 5605 5604 5603 5602 5601 5599 5597 5597 5595 5593 5591 5590 5590 5591 5590 5590 5589 5590 5589 5587 5585 5585 5585 5586 5587 5587 5588 5588 5589 5590 5588 5588 5587 5587
5608 5607 5606 5605 5603 5601 5600 5599 5597 5596 5595 5594 5592 5591 5589 5587 5586 5585 5583 5582 5580 5581 5582 5582 5581 5581 5580 5579 5577 5576 5576 5577 5578 5578 5578 5579 5579 5581 5581 5581 5581 5580 5580
5600 5598 5597 5595 5593 5592 5590 5589 5587 5586 5584 5583 5582 5580 5579 5577 5576 5575 5574 5572 5571 5571 5572 5572 5571 5571 5570 5570 5569 5569 5570 5570 5569 5569 5569 5569 5570 5571 5572 5573 5574 5574 5574
5590 5589 5587 5586 5585 5583 5580 5578 5577 5575 5573 5572 5571 5569 5568 5567 5566 5565 5564 5562 5562 5561 5561 5562 5562 5561 5561 5561 5561 5562 5562 5561 5560 5560 5560 5560 5561 5562 5563 5564 5565 5567 5568
5580 5578 5577 5576 5575 5573 5571 5568 5566 5564 5562 5561 5560 5559 5558 5557 5556 5555 5554 5552 5551 5550 5550 5551 5552 5552 5551 5551 5552 5553 5552 5551 5551 5551 5551 5553 5553 5554 5554 5555 5556 5557 5559
5569 5568 5567 5565 5564 5563 5561 5559 5556 5553 5551 5550 5549 5549 5549 5547 5545 5544 5543 5541 5540 5539 5539 5540 5541 5541 5541 5541 5542 5543 5543 5543 5543 5543 5543 5544 5544 5544 5544 5545 5546 5546 5548
5559 5558 5557 5555 5554 5552 5550 5547 5546 5544 5542 5540 5539 5539 5538 5537 5537 5535 5533 5532 5530 5530 5529 5528 5529 5529 5530 5531 5531 5532 5533 5534 5534 5535 5534 5534 5534 5534 5535 5536 5536 5536 5537
5548 5548 5546 5545 5543 5541 5538 5537 5535 5533 5533 5531 5530 5529 5529 5529 5528 5527 5525 5524 5522 5521 5519 5518 5519 5518 5519 5520 5521 5522 5523 5525 5525 5525 5525 5525 5525 5525 5526 5526 5526 5527 5528
5538 5537 5535 5534 5533 5531 5529 5528 5526 5525 5523 5521 5520 5520 5519 5519 5518 5518 5517 5515 5514 5513 5510 5511 5510 5510 5510 5511 5511 5512 5513 5515 5516 5516 5516 5516 5516 5517 5517 5517 5518 5518 5519
5528 5526 5525 5523 5522 5521 5520 5519 5518 5516 5514 5512 5511 5510 5509 5509 5508 5507 5506 5505 5504 5503 5502 5502 5502 5501 5501 5502 5502 5503 5504 5505 5506 5507 5508 5508 5508 5509 5509 5510 5510 5510 5510
5517 5515 5514 5513 5512 5511 5511 5510 5508 5507 5504 5502 5501 5500 5500 5499 5498 5497 5496 5495 5495 5495 5495 5495 5494 5493 5493 5493 5494 5495 5496 5497 5498 5499 5500 5500 5501 5501 5501 5503 5502 5502 5502
5505 5505 5504 5502 5501 5500 5500 5499 5497 5495 5493 5492 5490 5489 5488 5488 5487 5487 5487 5486 5487 5487 5487 5487 5486 5485 5484 5484 5485 5486 5487 5489 5490 5492 5493 5493 5493 5494 5494 5495 5495 5494 5494
5495 5494 5493 5491 5490 5489 5488 5487 5486 5484 5482 5481 5480 5479 5479 5478 5479 5479 5479 5478 5478 5478 5478 5477 5477 5476 5475 5475 5476 5478 5479 5481 5482 5484 5485 5486 5486 5487 5487 5487 5487 5487 5487
5483 5482 5481 5480 5480 5479 5478 5477 5476 5474 5473 5472 5471 5470 5470 5470 5470 5470 5470 5470 5470 5469 5468 5468 5468 5467 5467 5467 5468 5469 5471 5472 5474 5475 5476 5478 5479 5479 5480 5480 5480 5480 5480
5473 5472 5471 5471 5470 5470 5468 5467 5466 5465 5464 5463 5463 5462 5462 5461 5461 5461 5461 5461 5461 5460 5460 5459 5459 5459 5459 5459 5460 5461 5462 5464 5466 5467 5468 5470 5471 5471 5472 5473 5473 5473 5472
5465 5463 5462 5462 5461 5460 5458 5457 5456 5455 5455 5454 5454 5454 5453 5453 5453 5453 5452 5452 5452 5452 5451 5451 5450 5451 5451 5452 5452 5453 5455 5456 5458 5459 5460 5461 5462 5463 5464 5465 5465 5466 5465
5456 5455 5453 5452 5452 5450 5449 5448 5447 5447 5446 5447 5447 5446 5446 5445 5445 5444 5444 5443 5443 5443 5443 5443 5442 5442 5443 5444 5445 5446 5447 5449 5450 5451 5452 5453 5454 5455 5456 5457 5458 5458 5458
5448 5447 5446 5444 5443 5442 5441 5440 5439 5439 5439 5439 5439 5438 5438 5437 5437 5436 5436 5435 5435 5435 5435 5435 5435 5435 5436 5437 5438 5439 5440 5442 5443 5444 5444 5445 5446 5448 5449 5450 5451 5451 5451